Home > Weather > Iráklion > Past weeks

Flag for Greece Weather for the Past 2 Weeks in Iráklion, Crete, Greece

Now
70 °F

Sunny.


Feels Like: 70 °F
Forecast: 60 / 74 °F
Wind: 15 mph from Northwest

Location: Heraklion Airport

Current Time: May 1, 2016 at 1:29:58 PM

Latest Report: May 1, 2016 at 12:50 PM


Visibility: 10 mi

Pressure: 29.95 "Hg

Humidity: 57%

Dew Point: 54 °F

Location of IráklionLocation

Historic Weather in Iráklion — Graph

°F

Iráklion Temperature Yesterday

Maximum temperature yesterday: 77 °F (at 2:50 AM)
Minimum temperature yesterday: 64 °F (at 9:50 PM)
Average temperature yesterday: 70 °F

High & Low Weather Summary for the Past Weeks

 TemperatureHumidityPressure
High88 °F (Apr 20, 1:50 PM)94% (Apr 26, 3:50 AM)30.18 "Hg (Apr 26, 3:50 AM)
Low52 °F (Apr 28, 5:50 AM)11% (Apr 20, 3:50 PM)29.65 "Hg (Apr 24, 3:50 PM)
Average67 °F63%29.93 "Hg
* Reported Apr 16 11:50 AM — May 1 11:50 AM, Iráklion, Weather by CustomWeather, © 2016

Note: Actual official high and low records may vary slightly from our data, if they occured in-between our weather recording intervals... More about our weather records

Advertising

Iráklion Weather History for the Previous 24 Hours

Scroll right to see more
 ConditionsComfort  
Time TempWeatherWind HumidityBarometerVisibility
11:50 AM
Sun, May 1
68 °FSunny.14 mph64%29.95 "Hg10 mi
11:20 AM68 °FSunny.14 mph64%29.95 "Hg10 mi
10:50 AM68 °FSunny.14 mph64%29.95 "Hg10 mi
10:20 AM68 °FSunny.12 mph64%29.95 "Hg10 mi
9:50 AM68 °FSunny.12 mph64%29.95 "Hg10 mi
9:20 AM66 °FSunny.7 mph64%29.92 "Hg10 mi
8:50 AM66 °FSunny.7 mph64%29.92 "Hg10 mi
8:20 AM64 °FSunny.6 mph68%29.92 "Hg10 mi
6:50 AM61 °FClear.10 mph77%29.92 "Hg10 mi
5:50 AM57 °FPassing clouds.2 mph88%29.92 "HgN/A
5:20 AM59 °FPassing clouds.3 mph88%29.92 "HgN/A
4:50 AM59 °FPassing clouds.3 mph88%29.92 "HgN/A
4:20 AM63 °FPassing clouds.8 mph88%29.92 "HgN/A
3:50 AM63 °FPassing clouds.8 mph88%29.92 "HgN/A
3:20 AM63 °FPassing clouds.5 mph88%29.92 "HgN/A
2:50 AM63 °FPassing clouds.6 mph88%29.92 "HgN/A
2:20 AM63 °FPassing clouds.6 mph88%29.98 "HgN/A
1:50 AM64 °FPassing clouds.8 mph78%29.98 "HgN/A
1:20 AM64 °FPassing clouds.10 mph78%29.95 "HgN/A
12:50 AM64 °FPassing clouds.12 mph78%29.95 "HgN/A
11:20 PM
Sat, Apr 30
64 °FPassing clouds.13 mph83%29.95 "HgN/A
10:50 PM64 °FPassing clouds.13 mph83%29.95 "HgN/A
10:20 PM64 °FPassing clouds.15 mph83%29.95 "HgN/A
9:50 PM64 °FPassing clouds.15 mph83%29.95 "HgN/A
9:20 PM66 °FPassing clouds.15 mph78%29.92 "HgN/A
8:50 PM66 °FScattered clouds.15 mph78%29.92 "HgN/A
8:20 PM66 °FScattered clouds.14 mph78%29.92 "HgN/A
7:50 PM66 °FScattered clouds.14 mph78%29.92 "HgN/A
7:20 PM68 °FPartly sunny.14 mph73%29.89 "HgN/A
6:50 PM68 °FPartly sunny.14 mph73%29.89 "HgN/A
6:20 PM70 °FPartly sunny.15 mph73%29.89 "HgN/A
5:50 PM70 °FPartly sunny.15 mph73%29.89 "HgN/A
5:20 PM72 °FPartly sunny.17 mph69%29.89 "HgN/A
4:50 PM72 °FPartly sunny.17 mph69%29.89 "HgN/A
4:20 PM70 °FPartly sunny.16 mph78%29.89 "HgN/A
3:50 PM70 °FPartly sunny.16 mph78%29.89 "HgN/A
3:20 PM70 °FPartly sunny.17 mph73%29.89 "HgN/A
2:50 PM70 °FPartly sunny.17 mph73%29.89 "HgN/A
2:20 PM72 °FPartly sunny.16 mph73%29.86 "HgN/A
1:50 PM72 °FScattered clouds.15 mph73%29.83 "HgN/A
1:20 PM73 °FPassing clouds.18 mph69%29.83 "HgN/A
Weather by CustomWeather, © 2016

See weather overviewHow to use our weather pages